Location: Ay?beleni
(36.6500°N, 30.3000°E)
Time: 01:10:10
(UTC+00:00)

Meteor 1-21 Rocket - Pass Details

Date: 16 October 2021
Orbit: 834 x 906 km, 81.2° (Epoch: 04 December)

Event Time Altitude Azimuth Distance (km) Brightness Sun altitude
Rises 16:35:51 0° 352° (N) 3,495 7.5 -15.8°
Reaches altitude 10° 16:38:18 10° 353° (N) 2,562 6.8 -16.2°
Maximum altitude 16:44:10 85° 81° (E) 908 4.2 -17.4°
Drops below altitude 10° 16:50:04 10° 171° (S) 2,576 6.6 -18.6°
Sets 16:52:31 0° 172° (S) 3,516 7.3 -19.1°
